CW8095 Weather Reports


time (UTC)temp
F
wind
direction
speed
knots
gust
knots
rain 1hr
in
rain 24hr
in
rain mn
in
humidity
%
barometer
mb
20260905024544 83 157 2.6 9.6 0.00 0.00 0.00 47 1013.1
20260905023519 83 140 1.7 6.1 0.00 0.00 0.00 46 1013.0
20260905022530 84 125 2.6 7.8 0.00 0.00 0.00 45 1012.7
20260905021525 84 145 3.5 7.0 0.00 0.00 0.00 43 1012.5
20260905020520 84 135 2.6 5.2 0.00 0.00 0.00 41 1012.3
20260905015516 85 132 2.6 7.0 0.00 0.00 0.00 40 1012.2
20260905014526 85 135 2.6 6.1 0.00 0.00 0.00 39 1012.1
20260905013522 86 139 1.7 3.5 0.00 0.00 0.00 38 1011.8
20260905012517 86 129 1.7 5.2 0.00 0.00 0.00 38 1011.8
20260905011528 86 148 2.6 5.2 0.00 0.00 0.00 38 1011.7
20260905010523 87 144 2.6 7.0 0.00 0.00 0.00 39 1011.7
20260905005518 87 158 2.6 7.0 0.00 0.00 0.00 38 1011.5
20260905004529 88 143 2.6 9.6 0.00 0.00 0.00 38 1011.5
20260905003524 89 151 3.5 8.7 0.00 0.00 0.00 37 1011.2
20260905002540 90 144 2.6 6.1 0.00 0.00 0.00 37 1011.2
20260905001535 91 137 2.6 6.1 0.00 0.00 0.00 36 1011.2
20260905000526 91 139 2.6 7.8 0.00 0.00 0.00 35 1011.0
20260904235521 91 143 3.5 7.0 0.00 0.00 0.00 35 1011.1
20260904234517 92 140 4.3 12.2 0.00 0.00 0.00 34 1011.0
20260904233527 92 124 3.5 7.8 0.00 0.00 0.00 34 1011.0
20260904232523 93 143 2.6 7.0 0.00 0.00 0.00 33 1011.0
20260904231518 93 138 4.3 9.6 0.00 0.00 0.00 33 1011.0
20260904230549 94 128 4.3 9.6 0.00 0.00 0.00 32 1010.9
20260904225525 95 119 5.2 8.7 0.00 0.00 0.00 31 1011.0
20260904224520 95 144 1.7 8.7 0.00 0.00 0.00 30 1011.0
20260904223515 95 144 2.6 8.7 0.00 0.00 0.00 30 1011.1
20260904222526 94 159 2.6 7.8 0.00 0.00 0.00 31 1011.2
20260904221521 94 161 1.7 5.2 0.00 0.00 0.00 31 1011.1
20260904220517 96 143 2.6 7.8 0.00 0.00 0.00 29 1011.2
20260904215528 97 158 2.6 7.0 0.00 0.00 0.00 28 1011.2
20260904214523 97 133 3.5 7.8 0.00 0.00 0.00 28 1011.4
20260904213519 97 145 2.6 3.5 0.00 0.00 0.00 27 1011.5
20260904212529 97 110 5.2 9.6 0.00 0.00 0.00 27 1011.6
20260904211525 96 156 3.5 9.6 0.00 0.00 0.00 29 1011.7
20260904210520 97 155 2.6 7.8 0.00 0.00 0.00 29 1011.8
20260904205516 97 130 2.6 8.7 0.00 0.00 0.00 29 1012.0
20260904204527 96 141 4.3 9.6 0.00 0.00 0.00 29 1012.1
20260904203522 98 145 4.3 8.7 0.00 0.00 0.00 28 1012.2
20260904202518 98 122 3.5 9.6 0.00 0.00 0.00 27 1012.3
20260904201608 97 157 2.6 6.1 0.00 0.00 0.00 29 1012.3
20260904200544 96 114 2.6 7.0 0.00 0.00 0.00 31 1012.5
20260904195539 94 172 3.5 11.3 0.00 0.00 0.00 32 1012.8
20260904194549 95 155 2.6 7.8 0.00 0.00 0.00 31 1013.0
20260904193525 96 144 1.7 5.2 0.00 0.00 0.00 31 1013.1
20260904192521 95 138 2.6 7.8 0.00 0.00 0.00 32 1013.3
20260904191516 96 173 1.7 5.2 0.00 0.00 0.00 31 1013.2
20260904190527 96 168 4.3 7.8 0.00 0.00 0.00 31 1013.4
20260904185522 95 156 2.6 9.6 0.00 0.00 0.00 32 1013.5
20260904184518 94 123 2.6 7.0 0.00 0.00 0.00 33 1013.7
20260904183528 94 151 3.5 7.8 0.00 0.00 0.00 33 1013.8
20260904182524 94 151 2.6 7.8 0.00 0.00 0.00 35 1014.0
20260904181519 92 164 1.7 5.2 0.00 0.00 0.00 37 1014.1
20260904180530 92 188 2.6 8.7 0.00 0.00 0.00 39 1014.2
20260904175525 92 168 2.6 6.1 0.00 0.00 0.00 38 1014.4
20260904174521 93 161 1.7 6.1 0.00 0.00 0.00 37 1014.4
20260904173516 94 137 4.3 8.7 0.00 0.00 0.00 35 1014.5
20260904172527 93 175 1.7 7.0 0.00 0.00 0.00 38 1014.7
20260904171523 92 165 2.6 7.0 0.00 0.00 0.00 40 1014.8
20260904170518 91 154 0.9 6.1 0.00 0.00 0.00 41 1014.9
20260904165528 92 154 2.6 7.8 0.00 0.00 0.00 40 1015.0
20260904164524 91 148 2.6 9.6 0.00 0.00 0.00 41 1015.0
20260904163519 90 137 2.6 6.1 0.00 0.00 0.00 42 1015.1
20260904162515 89 146 2.6 8.7 0.00 0.00 0.00 44 1014.9
20260904161526 89 143 2.6 7.0 0.00 0.00 0.00 46 1014.9
20260904160541 88 166 3.5 8.7 0.00 0.00 0.00 47 1014.9
20260904155517 87 165 2.6 7.0 0.00 0.00 0.00 49 1015.1
20260904154528 86 177 2.6 6.1 0.00 0.00 0.00 52 1014.9
20260904153524 84 139 4.3 11.3 0.00 0.00 0.00 56 1015.0
20260904152559 84 173 3.5 7.8 0.00 0.00 0.00 57 1015.0
20260904151515 83 137 2.6 8.7 0.00 0.00 0.00 59 1014.9
20260904150526 82 156 3.5 11.3 0.00 0.00 0.00 60 1015.0
20260904145522 81 162 2.6 7.0 0.00 0.00 0.00 62 1015.0
20260904144518 81 144 2.6 5.2 0.00 0.00 0.00 62 1015.0
20260904143528 80 159 2.6 7.0 0.00 0.00 0.00 64 1014.9
20260904142544 79 156 2.6 6.1 0.00 0.00 0.00 66 1014.9
20260904141520 79 149 2.6 7.8 0.00 0.00 0.00 67 1015.0
20260904140515 79 163 2.6 7.8 0.00 0.00 0.00 67 1015.0
20260904135526 78 140 1.7 6.1 0.00 0.00 0.00 70 1014.9
20260904134522 77 161 1.7 6.1 0.00 0.00 0.00 71 1014.9
20260904133518 75 158 1.7 5.2 0.00 0.00 0.00 74 1014.6
20260904132529 74 128 3.5 7.0 0.00 0.00 0.00 75 1014.7
20260904131544 73 124 3.5 7.0 0.00 0.00 0.00 76 1014.5
20260904130540 72 95 1.7 3.5 0.00 0.00 0.00 78 1014.5
20260904125516 72 154 1.7 5.2 0.00 0.00 0.00 78 1014.3
20260904124547 72 130 2.6 5.2 0.00 0.00 0.00 79 1014.2
20260904123522 71 123 2.6 5.2 0.00 0.00 0.00 79 1014.1
20260904122538 71 141 1.7 6.1 0.00 0.00 0.00 80 1014.1
20260904121529 71 139 2.6 6.1 0.00 0.00 0.00 79 1013.9
20260904120525 71 122 2.6 7.0 0.00 0.00 0.00 79 1013.8
20260904115521 71 156 1.7 3.5 0.00 0.00 0.00 79 1013.7
20260904114516 71 131 1.7 2.6 0.00 0.00 0.00 79 1013.7
20260904113546 71 132 2.6 5.2 0.00 0.00 0.00 79 1013.7
20260904112521 71 119 2.6 5.2 0.00 0.00 0.00 78 1013.7
20260904111517 71 126 1.7 6.1 0.00 0.00 0.00 78 1013.5
20260904110528 71 141 1.7 3.5 0.00 0.00 0.00 78 1013.6
20260904105524 71 114 1.7 2.6 0.00 0.00 0.00 78 1013.6
20260904104519 71 143 0.9 1.7 0.00 0.00 0.00 78 1013.5
20260904103535 71 138 0.9 1.7 0.00 0.00 0.00 78 1013.3
20260904102526 71 134 0.0 0.9 0.00 0.00 0.00 78 1013.2
20260904101522 71 134 0.0 1.7 0.00 0.00 0.00 78 1013.2
20260904100518 71 134 0.0 1.7 0.00 0.00 0.00 77 1013.2
20260904095529 72 138 2.6 5.2 0.00 0.00 0.00 77 1013.2
20260904094544 72 114 1.7 3.5 0.00 0.00 0.00 77 1013.2
20260904093520 72 134 1.7 6.1 0.00 0.00 0.00 77 1013.2
20260904092516 72 131 1.7 5.2 0.00 0.00 0.00 77 1013.1
20260904091527 72 145 0.9 5.2 0.00 0.00 0.00 77 1013.2
20260904090522 72 143 1.7 7.0 0.00 0.00 0.00 76 1013.1
20260904085518 72 152 1.7 6.1 0.00 0.00 0.00 76 1013.1
20260904084529 72 161 2.6 6.1 0.00 0.00 0.00 76 1013.2
20260904083525 72 169 4.3 6.1 0.00 0.00 0.00 76 1013.3
20260904082525 72 150 2.6 7.8 0.00 0.00 0.00 76 1013.0
20260904082028 72 150 2.6 8.7 0.00 0.00 0.00 76 1013.0
20260904081043 72 147 1.7 6.1 0.00 0.00 0.00 76 1013.0
20260904080019 72 135 1.7 6.1 0.00 0.00 0.00 76 1013.0
20260904075025 72 151 1.7 5.2 0.00 0.00 0.00 76 1013.0
20260904074046 72 162 2.6 5.2 0.00 0.00 0.00 75 1013.2
20260904073024 72 119 0.9 2.6 0.00 0.00 0.00 75 1013.2
20260904072020 72 130 0.9 3.5 0.00 0.00 0.00 75 1013.3
20260904071018 72 155 1.7 7.0 0.00 0.00 0.00 75 1013.5
20260904070030 72 135 1.7 6.1 0.00 0.00 0.00 75 1013.4
20260904065021 72 139 1.7 3.5 0.00 0.00 0.00 74 1013.5
20260904064043 72 134 1.7 2.6 0.00 0.00 0.00 74 1013.6
20260904063025 73 135 0.9 3.5 0.00 0.00 0.00 74 1013.4
20260904062037 73 142 1.7 5.2 0.00 0.00 0.00 74 1013.5
20260904061043 73 155 1.7 7.0 0.00 0.00 0.00 73 1013.4
20260904060057 73 157 1.7 7.8 0.00 0.00 0.00 73 1013.5
20260904055050 73 149 1.7 5.2 0.00 0.00 0.00 73 1013.5
20260904054023 73 151 2.6 6.1 0.00 0.00 0.00 72 1013.6
20260904053044 73 144 2.6 7.0 0.00 0.00 0.00 72 1013.5
20260904052112 73 147 2.6 7.8 0.00 0.00 0.00 71 1013.3
20260904051023 73 149 1.7 6.1 0.00 0.00 0.00 71 1013.2
20260904050029 73 141 2.6 7.0 0.00 0.00 0.00 70 1013.4
20260904045523 73 145 2.6 7.0 0.00 0.00 0.00 69 1013.6
20260904044550 73 151 2.6 8.7 0.00 0.00 0.00 69 1013.5
20260904043538 73 136 2.6 6.1 0.00 0.00 0.00 68 1013.5
20260904042516 74 127 3.5 6.1 0.00 0.00 0.00 67 1013.5
20260904041529 74 133 2.6 7.0 0.00 0.00 0.00 65 1013.6
20260904040523 74 122 2.6 7.0 0.00 0.00 0.00 63 1013.5
20260904035542 74 127 3.5 8.7 0.00 0.00 0.00 62 1013.6
20260904034537 74 129 3.5 7.8 0.00 0.00 0.00 61 1013.6
20260904033529 75 120 2.6 6.1 0.00 0.00 0.00 61 1013.5
20260904032528 75 129 3.5 7.8 0.00 0.00 0.00 62 1013.4
20260904031524 75 122 2.6 7.0 0.00 0.00 0.00 62 1013.4
20260904030516 75 128 2.6 6.1 0.00 0.00 0.00 62 1013.3
20260904025526 75 132 2.6 7.8 0.00 0.00 0.00 62 1013.2